Regional Weather Roundup
Issued by NWS Cleveland, OH

Home | Current Version | Previous Version | Graphics & Text | Print | Product List | Glossary On
Versions: 1 2 3 4 5 6 7 8 9 10 11 12 13 14 15 16 17 18 19 20 21 22 23 24 25 26 27 28 29 30 31 32 33 34 35 36 37 38 39 40 41 42 43 44 45 46 47 48 49 50
782
ASUS41 KCLE 031912
RWRCLE
OHIO REGIONAL WEATHER ROUNDUP
NATIONAL WEATHER SERVICE WILMINGTON, OH
200 PM EST SAT DEC 03 2016

NOTE: "FAIR" INDICATES FEW OR NO CLOUDS BELOW 12,000 FEET WITH NO
SIGNIFICANT WEATHER AND/OR OBSTRUCTIONS TO VISIBILITY.

OHZ001>008-015>018-024>027-034-035-043-044-032000-
   NORTHWEST OHIO

CITY           SKY/WX    TMP DP  RH WIND       PRES   REMARKS
DEFIANCE       CLOUDY    39  25  57 SW6       30.32F
FINDLAY        CLOUDY    39  24  55 W9        30.31R
TOLEDO EXPRESS CLOUDY    37  28  70 W7        30.30R
TOLEDO EXEC    CLOUDY    38  29  70 W12       30.30S
LIMA           CLOUDY    37  27  67 W10       30.31R
$$

OHZ009>014-019>023-028>033-038-089-032000-
   NORTHEAST OHIO

CITY           SKY/WX    TMP DP  RH WIND       PRES   REMARKS
CLE-HOPKINS    CLOUDY    40  30  67 W9        30.30R
CLE-LAKEFRONT  CLOUDY    40  31  70 SW15      30.28R
CUY CO. ARPT   CLOUDY    39  36  87 SW12      30.28R
LORAIN-ELYRIA  CLOUDY    38  29  70 W9        30.29R
ASHTABULA      CLOUDY    40  34  79 W12       30.24
AKRON-CANTON   CLOUDY    38  29  70 W7        30.26S
WOOSTER        CLOUDY    37  27  67 W9        30.29R
MANSFIELD      CLOUDY    36  27  69 W9        30.29R
YOUNGSTOWN     CLOUDY    38  30  73 W12       30.26R
$$

OHZ042-051>053-060>062-070>072-077>081-032000-
  SOUTHWEST OHIO

CITY           SKY/WX    TMP DP  RH WIND       PRES   REMARKS
CINC-COVINGTON CLOUDY    41  30  65 SW8       30.33S
CINC-LUNKEN    CLOUDY    42  31  64 W6        30.36S
HAMILTON       CLOUDY    42  27  55 VRB3      30.36R
DAYTON         CLOUDY    38  25  59 W9        30.33R
WRIGHT-PAT AFB CLOUDY    40  26  57 SW7       30.33R
DAYTON GENERAL CLOUDY    39  25  57 W7        30.32
WILMINGTON     CLOUDY    38  27  64 W8        30.32R
$$

OHZ036-037-039>041-045>050-054>059-063>069-073>076-082>088-032000-
  CENTRAL AND SOUTHEAST OHIO

CITY           SKY/WX    TMP DP  RH WIND       PRES   REMARKS
COLUMBUS       CLOUDY    39  26  59 W7        30.31S
OSU AIRPORT    CLOUDY    39  27  62 W6        30.31R
BOLTON FIELD   CLOUDY    39  27  60 W3        30.32R
RICKENBACK AFB CLOUDY    39  25  57 W5        30.32R
NEWARK         CLOUDY    38  26  62 NW7       30.31R
MARION         CLOUDY    37  23  56 W8        30.31R
LANCASTER      CLOUDY    39  29  67 W6        30.33R
ZANESVILLE     CLOUDY    38  26  62 W6        30.31R
NEW PHILLY     CLOUDY    38  29  70 SW8       30.31R
$$




USA.gov is the U.S. government's official web portal to all federal, state and local government web resources and services.